Marion, SC

8:31 PM EST on November 20, 2017 (GMT -0500)
Marion County

Weather History for KMAO - January, 2014

Change the Weather History Date:

Saturday, January 4, 2014

  Actual Average (KFLO) Record (KFLO)
Temperature  
Mean Temperature 34 °F -  
Max Temperature 41 °F 56 °F 78 °F (1950)
Min Temperature 26 °F 37 °F 16 °F (2008)
Degree Days  
Heating Degree Days 32    
Moisture  
Dew Point 21 °F    
Average Humidity 60    
Maximum Humidity 74    
Minimum Humidity 38    
Precipitation  
Precipitation 0.00 in - - ()
Sea Level Pressure  
Sea Level Pressure 30.42 in    
Wind  
Wind Speed 5 mph (NNE)    
Max Wind Speed 10 mph    
Max Gust Speed -    
Visibility 10 miles    
Events      
Averages and records for this station are not official NWS values.
T = Trace of Precipitation, MM = Missing Value Source: NWS Daily Summary

Daily Weather History Graph

Daily Weather History Graph

Search for Another Location

Airport or City:

Trip Planner

Search our weather history database for the weather conditions in past years. The results will help you decide how hot, cold, wet, or windy it might be!

Date:

Astronomy

Jan. 04, 2014 Rise Set
Actual Time 7:23 AM EST 5:21 PM EST
Civil Twilight 6:56 AM EST 5:48 PM EST
Nautical Twilight 6:24 AM EST 6:19 PM EST
Astronomical Twilight 5:54 AM EST 6:50 PM EST
Moon 9:38 AM EST (1/4) 9:26 PM EST (1/4)
Length of Visible Light 10h 52m
Length of Day
9h 57m
Waxing Crescent, 15% of the Moon is Illuminated
Jan 4
Waxing Crescent
Jan 7
First Quarter
Jan 15
Full
Jan 24
Last Quarter
Jan 30
New

Hourly Weather History & Observations

Time (EST) Temp. Windchill Dew Point Humidity Pressure Visibility Wind Dir Wind Speed Gust Speed Precip Events Conditions
12:15 AM 26.6 °F 22.6 °F 19.4 °F 74% 30.47 in 10.0 mi NNE 3.5 mph - N/A   Clear
12:35 AM 26.6 °F - 19.4 °F 74% 30.48 in 10.0 mi Calm Calm - N/A   Clear
12:55 AM 26.6 °F 22.6 °F 19.4 °F 74% 30.48 in 10.0 mi NE 3.5 mph - N/A   Clear
1:15 AM 26.6 °F 22.6 °F 19.4 °F 74% 30.48 in 10.0 mi NE 3.5 mph - N/A   Clear
1:35 AM 26.6 °F 22.6 °F 19.4 °F 74% 30.48 in 10.0 mi NE 3.5 mph - N/A   Clear
1:55 AM 26.6 °F 22.6 °F 19.4 °F 74% 30.48 in 10.0 mi NE 3.5 mph - N/A   Clear
2:15 AM 26.6 °F 20.0 °F 19.4 °F 74% 30.48 in 10.0 mi NNE 5.8 mph - N/A   Clear
2:35 AM 26.6 °F 21.2 °F 17.6 °F 69% 30.48 in 10.0 mi NNE 4.6 mph - N/A   Clear
2:55 AM 26.6 °F 21.2 °F 17.6 °F 69% 30.48 in 10.0 mi NNE 4.6 mph - N/A   Clear
3:15 AM 26.6 °F 21.2 °F 17.6 °F 69% 30.48 in 10.0 mi NNE 4.6 mph - N/A   Clear
3:35 AM 26.6 °F 22.6 °F 19.4 °F 74% 30.49 in 10.0 mi NE 3.5 mph - N/A   Scattered Clouds
3:55 AM 28.4 °F 24.6 °F 19.4 °F 69% 30.48 in 10.0 mi NNE 3.5 mph - N/A   Mostly Cloudy
4:15 AM 28.4 °F 22.2 °F 19.4 °F 69% 30.48 in 10.0 mi NE 5.8 mph - N/A   Overcast
4:35 AM 28.4 °F 21.2 °F 17.6 °F 64% 30.47 in 10.0 mi NNE 6.9 mph - N/A   Overcast
4:55 AM 28.4 °F 21.2 °F 17.6 °F 64% 30.47 in 10.0 mi NE 6.9 mph - N/A   Overcast
5:15 AM 28.4 °F 22.2 °F 17.6 °F 64% 30.47 in 10.0 mi NE 5.8 mph - N/A   Overcast
5:35 AM 28.4 °F 22.2 °F 17.6 °F 64% 30.46 in 10.0 mi NE 5.8 mph - N/A   Mostly Cloudy
5:55 AM 28.4 °F 22.2 °F 17.6 °F 64% 30.47 in 10.0 mi NE 5.8 mph - N/A   Scattered Clouds
6:15 AM 26.6 °F 21.2 °F 17.6 °F 69% 30.48 in 10.0 mi NE 4.6 mph - N/A   Clear
6:35 AM 26.6 °F 20.0 °F 17.6 °F 69% 30.47 in 10.0 mi NE 5.8 mph - N/A   Clear
6:55 AM 26.6 °F 19.1 °F 15.8 °F 64% 30.47 in 10.0 mi NNE 6.9 mph - N/A   Clear
7:15 AM 26.6 °F 21.2 °F 15.8 °F 64% 30.47 in 10.0 mi NE 4.6 mph - N/A   Clear
7:35 AM 28.4 °F 23.3 °F 15.8 °F 59% 30.48 in 10.0 mi NNE 4.6 mph - N/A   Scattered Clouds
7:55 AM 28.4 °F 21.2 °F 15.8 °F 59% 30.48 in 10.0 mi NE 6.9 mph - N/A   Overcast
8:15 AM 28.4 °F 22.2 °F 17.6 °F 64% 30.50 in 10.0 mi NNE 5.8 mph - N/A   Overcast
8:35 AM 28.4 °F 21.2 °F 17.6 °F 64% 30.50 in 10.0 mi NNE 6.9 mph - N/A   Overcast
8:55 AM 30.2 °F 23.4 °F 15.8 °F 55% 30.50 in 10.0 mi NNE 6.9 mph - N/A   Overcast
9:15 AM 30.2 °F 23.4 °F 15.8 °F 55% 30.50 in 10.0 mi NNE 6.9 mph - N/A   Overcast
9:35 AM 32.0 °F 24.2 °F 15.8 °F 51% 30.49 in 10.0 mi NE 9.2 mph - N/A   Overcast
9:55 AM 32.0 °F 25.6 °F 14.0 °F 48% 30.50 in 10.0 mi NE 6.9 mph - N/A   Overcast
10:15 AM 32.0 °F 26.4 °F 14.0 °F 48% 30.51 in 10.0 mi NNE 5.8 mph - N/A   Overcast
10:35 AM 32.0 °F 26.4 °F 12.2 °F 44% 30.52 in 10.0 mi North 5.8 mph - N/A   Overcast
10:55 AM 32.0 °F 25.6 °F 12.2 °F 44% 30.51 in 10.0 mi NE 6.9 mph - N/A   Overcast
11:15 AM 33.8 °F 27.0 °F 12.2 °F 41% 30.49 in 10.0 mi NNE 8.1 mph - N/A   Overcast
11:35 AM 33.8 °F 25.8 °F 12.2 °F 41% 30.47 in 10.0 mi NNE 10.4 mph - N/A   Overcast
11:55 AM 35.6 °F 30.7 °F 12.2 °F 38% 30.45 in 10.0 mi North 5.8 mph - N/A   Overcast
12:15 PM 35.6 °F 29.2 °F 14.0 °F 41% 30.43 in 10.0 mi North 8.1 mph - N/A   Overcast
12:35 PM 35.6 °F 28.6 °F 14.0 °F 41% 30.42 in 10.0 mi North 9.2 mph - N/A   Overcast
12:55 PM 35.6 °F 29.9 °F 15.8 °F 44% 30.41 in 10.0 mi North 6.9 mph - N/A   Overcast
1:15 PM 37.4 °F 33.8 °F 17.6 °F 45% 30.40 in 10.0 mi North 4.6 mph - N/A   Overcast
1:35 PM 37.4 °F 32.1 °F 19.4 °F 48% 30.39 in 10.0 mi NNE 6.9 mph - N/A   Overcast
1:55 PM 37.4 °F 33.8 °F 19.4 °F 48% 30.40 in 10.0 mi North 4.6 mph - N/A   Overcast
2:15 PM 37.4 °F 32.8 °F 19.4 °F 48% 30.39 in 10.0 mi North 5.8 mph - N/A   Overcast
2:35 PM 37.4 °F 32.8 °F 19.4 °F 48% 30.39 in 10.0 mi North 5.8 mph - N/A   Overcast
2:55 PM 39.2 °F 34.2 °F 21.2 °F 49% 30.38 in 10.0 mi North 6.9 mph - N/A   Overcast
3:15 PM 39.2 °F 34.2 °F 21.2 °F 49% 30.37 in 10.0 mi North 6.9 mph - N/A   Overcast
3:35 PM 39.2 °F 35.0 °F 21.2 °F 49% 30.37 in 10.0 mi NNW 5.8 mph - N/A   Mostly Cloudy
3:55 PM 41.0 °F 35.8 °F 23.0 °F 49% 30.36 in 10.0 mi North 8.1 mph - N/A   Mostly Cloudy
4:15 PM 39.2 °F 33.6 °F 23.0 °F 52% 30.37 in 10.0 mi North 8.1 mph - N/A   Mostly Cloudy
4:35 PM 41.0 °F 37.1 °F 24.8 °F 53% 30.37 in 10.0 mi North 5.8 mph - N/A   Overcast
4:55 PM 41.0 °F 36.4 °F 24.8 °F 53% 30.38 in 10.0 mi North 6.9 mph - N/A   Overcast
5:15 PM 39.2 °F 34.2 °F 26.6 °F 61% 30.38 in 10.0 mi NNE 6.9 mph - N/A   Overcast
5:35 PM 39.2 °F 34.2 °F 26.6 °F 61% 30.37 in 10.0 mi North 6.9 mph - N/A   Overcast
5:55 PM 39.2 °F 34.2 °F 26.6 °F 61% 30.37 in 10.0 mi North 6.9 mph - N/A   Overcast
6:15 PM 39.2 °F 34.2 °F 26.6 °F 61% 30.36 in 10.0 mi North 6.9 mph - N/A   Overcast
6:35 PM 37.4 °F 32.1 °F 26.6 °F 65% 30.36 in 10.0 mi North 6.9 mph - N/A   Overcast
6:55 PM 37.4 °F 33.8 °F 26.6 °F 65% 30.36 in 10.0 mi North 4.6 mph - N/A   Overcast
7:15 PM 37.4 °F 32.8 °F 26.6 °F 65% 30.36 in 10.0 mi NNE 5.8 mph - N/A   Overcast
7:35 PM 37.4 °F 32.8 °F 26.6 °F 65% 30.35 in 10.0 mi NNE 5.8 mph - N/A   Overcast
7:55 PM 37.4 °F 32.8 °F 26.6 °F 65% 30.36 in 10.0 mi North 5.8 mph - N/A   Overcast
8:15 PM 37.4 °F 32.8 °F 26.6 °F 65% 30.35 in 10.0 mi North 5.8 mph - N/A   Overcast
8:35 PM 37.4 °F 32.8 °F 26.6 °F 65% 30.34 in 10.0 mi NNE 5.8 mph - N/A   Overcast
8:55 PM 37.4 °F 32.8 °F 28.4 °F 70% 30.33 in 10.0 mi NNE 5.8 mph - N/A   Overcast
9:15 PM 37.4 °F 33.8 °F 28.4 °F 70% 30.34 in 10.0 mi NNE 4.6 mph - N/A   Overcast
9:35 PM 39.2 °F 35.9 °F 28.4 °F 65% 30.33 in 10.0 mi North 4.6 mph - N/A   Overcast
9:55 PM 39.2 °F 35.9 °F 28.4 °F 65% 30.32 in 10.0 mi NNE 4.6 mph - N/A   Overcast
10:15 PM 39.2 °F 35.9 °F 28.4 °F 65% 30.31 in 10.0 mi NE 4.6 mph - N/A   Overcast
10:35 PM 39.2 °F 37.0 °F 30.2 °F 70% 30.30 in 10.0 mi NNE 3.5 mph - N/A   Overcast
10:55 PM 39.2 °F 35.9 °F 30.2 °F 70% 30.29 in 10.0 mi NNE 4.6 mph - N/A   Overcast
11:15 PM 39.2 °F 35.9 °F 30.2 °F 70% 30.28 in 10.0 mi NNE 4.6 mph - N/A   Overcast
11:35 PM 39.2 °F 37.0 °F 30.2 °F 70% 30.27 in 10.0 mi NNE 3.5 mph - N/A   Overcast
11:55 PM 39.2 °F - 30.2 °F 70% 30.26 in 10.0 mi Calm Calm - N/A   Overcast